THOR ABLESTAR DEB, 420

Orbit data source: Space-Track

THOR ABLESTAR DEB, 420 is space debris in LEO originally from a launch on Thu, 29 Jun 1961 UTC launched from the Air Force Eastern Test Range (AFETR). Debris objects in space refer to the collection of defunct objects orbiting the Earth. Examples of debris include non-operational satellites, rocket bodies, and fragments generated from explosions, collisions, or faulty payload assembly.

Loading next visibility...
Identifier
420, 1961-015EV
Orbit
LEO
Country
Flag of USUS
Related business
Manufacturer
Unknown
Mission
Spacecraft
Bus & Motor
Unknown
Mass
Unknown
Launch date (UTC)
1961-06-29 (64 years ago)
Launch vehicle
Unknown
Launch site
Air Force Eastern Test Range (AFETR)
Object type
Payload
Rocket body
Debris
Shape & HBR
Unknown shape, 0.1 m
Radar Cross Section
Small (<0.1 m²)

Expand to show TLE details & history
Last TLE update: 17 hours ago

TLE from 17 hours ago
0 THOR ABLESTAR DEB
1 00420U 61015EV  25296.66662399  .00001547  00000-0  56879-3 0  9995
2 00420  66.8130 176.6830 0079961  22.1941 338.2589 14.33492682319670
Epoch: 2025-10-23T15:59Z
TLE epoch observation values (Epoch: 2025-10-23T15:59:56.312Z)
Latitude
Longitude
-95.62423°
Altitude
729.09 km
Speed
7.519 km/s
True Right ascension
11h 46m 43s
True Declination
0° 00' 00"
Sunlit
Object was in daylight at epoch
Visualization orbit readout
Latitude
Unknown
Longitude
Unknown
Altitude
Unknown
Speed
Unknown
Apparent Right ascension
Unknown
Apparent Declination
Unknown
Sunlit
N/A
Visualization observer readout
Local Sidereal Time
04:12:59
Azimuth
Unknown
Elevation
Unknown
Doppler factor
Unknown
Orbital elements
Apogee altitude
835.664 km
Perigee altitude
721.214 km
Semi-major axis
7,156.576 km
Eccentricity
0.008
Inclination
66.813°
RAAN
176.683°
Arg. of periapsis
22.1941°
True anomaly
337.91632°
Mean anomaly
338.2589°
Eccentric anomaly
338.08793°
Mean motion
3.58497 °/min
Orbital period
100.42 mins
BSTAR
0.00056879

Documentation

Showing up to 5 results
|